This is the latest recevied weather packets stored in our database for station/object G4KVI. If no packets are shown the sender has not sent any weather packets the latest 10 day(s).
| Time | Temp. | Humidity | Pressure | Rain* | Wind** | Luminosity | Snow |
|---|---|---|---|---|---|---|---|
| 1787657704 | 22.78° C | 51% | 1013.7 hPa | 0 mm | - | 349 W/m² | - |
| 1787657404 | 22.78° C | 53% | 1013.7 hPa | 0 mm | - | 421 W/m² | - |
| 1787657104 | 22.22° C | 53% | 1013.6 hPa | 0 mm | - | 428 W/m² | - |
| 1787656804 | 22.22° C | 53% | 1014 hPa | 0 mm | - | 327 W/m² | - |
| 1787656504 | 22.22° C | 53% | 1014 hPa | 0 mm | - | 332 W/m² | - |
| 1787656204 | 22.22° C | 53% | 1013.8 hPa | 0 mm | - | 426 W/m² | - |
| 1787655904 | 21.67° C | 53% | 1013.8 hPa | 0 mm | - | 487 W/m² | - |
| 1787655604 | 21.67° C | 53% | 1014.1 hPa | 0 mm | - | 322 W/m² | - |
| 1787655304 | 21.67° C | 53% | 1014 hPa | 0 mm | - | 291 W/m² | - |
| 1787655004 | 21.67° C | 53% | 1014.1 hPa | 0 mm | - | 274 W/m² | - |
| 1787654704 | 21.67° C | 54% | 1013.8 hPa | 0 mm | - | 276 W/m² | - |
| 1787654404 | 21.67° C | 54% | 1013.9 hPa | 0 mm | - | 391 W/m² | - |
| 1787654104 | 21.67° C | 55% | 1014.2 hPa | 0 mm | - | 246 W/m² | - |
| 1787653804 | 21.67° C | 54% | 1014.2 hPa | 0 mm | - | 274 W/m² | - |
| 1787653504 | 22.22° C | 54% | 1014.3 hPa | 0 mm | - | 360 W/m² | - |
| 1787653204 | 22.22° C | 53% | 1014.1 hPa | 0 mm | - | 595 W/m² | - |
| 1787652904 | 22.22° C | 52% | 1014 hPa | 0 mm | - | 599 W/m² | - |
| 1787652604 | 21.67° C | 57% | 1014.1 hPa | 0 mm | - | 586 W/m² | - |
| 1787652304 | 21.67° C | 57% | 1014.2 hPa | 0 mm | - | 387 W/m² | - |
| 1787652004 | 22.22° C | 57% | 1014.4 hPa | 0 mm | - | 616 W/m² | - |
| 1787651704 | 21.67° C | 57% | 1014.2 hPa | 0 mm | - | 609 W/m² | - |
| 1787651404 | 21.67° C | 58% | 1014.5 hPa | 0 mm | - | 650 W/m² | - |
| 1787651104 | 21.67° C | 59% | 1014.5 hPa | 0 mm | - | 651 W/m² | - |
| 1787650804 | 21.11° C | 60% | 1014.4 hPa | 0 mm | - | 673 W/m² | - |
| 1787650504 | 21.11° C | 60% | 1014.4 hPa | 0 mm | - | 575 W/m² | - |
* Rain latest hour (hover to see other rain measurements)
** Current wind speed in m/s (hover to see current wind gust speed)